475  
ASUS42 KMLB 160507  
RWRMLB  
HOURLY WEATHER ROUNDUP AROUND FLORIDA  
NATIONAL WEATHER SERVICE OFFICE MELBOURNE FL  
1200 AM EST SAT DEC 16 2017  
 
CITY SKY/WX TMP DP RH WIND PRES REMARKS
 
MELBOURNE CLEAR 60 55 83 S5 30.16F  
FORT PIERCE CLEAR 54 54 100 CALM 30.17S  
ORLANDO INTL CLEAR 55 52 89 S3 30.18R  
DAYTONA BEACH CLEAR 59 56 89 W5 30.16S  
VERO BEACH CLEAR 58 55 90 CALM 30.17F  

   
..ELSEWHERE ACROSS CENTRAL FLORIDA
 
 
 
CITY SKY/WX TMP DP RH WIND PRES REMARKS
 
PATRICK AFB CLEAR 59 54 84 CALM 30.16S  
KSC CLEAR 55 55 99 CALM 30.15S  
CAPE CANAVERAL CLEAR 54 50 87 CALM 30.15S  
ORLANDO EXEC CLEAR 62 53 72 CALM 30.16F  
LEESBURG CLEAR 58 56 93 CALM 30.18R  
SANFORD CLEAR 57 51 80 W6 30.16S  
DELAND CLEAR 59 55 88 W6 30.17R  
WINTER HAVEN CLEAR 58 54 86 CALM 30.18S  
KISSIMMEE CLEAR 56 52 86 CALM 30.18S  
OKEECHOBEE CLEAR 54 54 100 CALM 30.17F  
TAMPA CLEAR 62 55 77 CALM 30.17S  

   
..NORTHERN FLORIDA
 
 
 
CITY SKY/WX TMP DP RH WIND PRES REMARKS
 
PALM COAST PTCLDY 56 55 94 NW5 30.17R  
ST AUGUSTINE CLOUDY 56 45 66 MISG 30.17S  
OCALA CLOUDY 56 55 97 CALM 30.18S  
GAINESVILLE CLOUDY 54 48 80 W3 30.20S  
JACKSONVILLE CLOUDY 56 42 59 NW6 30.17S  
TALLAHASSEE CLOUDY 49 35 58 N8 30.22R  

   
..ALONG THE SOUTHEAST COAST TO THE KEYS
 
 
 
CITY SKY/WX TMP DP RH WIND PRES REMARKS
 
STUART CLEAR 63 59 88 W3 30.19S  
WEST PALM BCH CLOUDY 58 55 90 NW5 30.18S  
MIAMI CLOUDY 65 61 87 CALM 30.17S  
KEY WEST CLEAR 66 62 87 NE3 30.17S  

   
..MARINE REPORTS
 
 
 
STATION/POSITION TIME TEMP WIND PRES WAVE SWELL
 
AIR SEA DIR/SP/G HT/PER HT/PER  
(UTC) (F) (DEG/KT/KT) (MB) (FT/S) (FT/S)  
ST AUGUSTINE FP 0500 57 64 280/ 3/ 4 1021.5F  
20NM E CAPE CANA 0450 70 77 290/ 12/ 14 1021.0S 2/11  
TRIDENT PIER 0448 63 68 300/ 4/ 4 1022.9R  
SEBASTIAN INLET 0500 62 62 260/ 6 1022.0  
4NM E PORT CANAV 0453 68 N/A 1/11  
6NM NE FPR INLET 0430 73 N/A 1/11  
SETTLEMENT PT GB 0500 75 280/ 6/ 8 1021.5F  

 
 
 
CLICK HERE TO GO TO PREVIOUS BULLETINS.

The Nexlab FL Page Main Text Page